Tracking 18851 objects as of 24-Nov-2017
HD Live streaming from Space Station
objects crossing your sky now

FENGYUN 1C DEB

Track FENGYUN 1C DEB now!
10-day predictions


NORAD ID: 30069
Int'l Code: 1999-025PW
Perigee: 854.1 km
Apogee: 926.2 km
Inclination: 98.9 °
Period: 102.6 minutes
Semi major axis: 7261 km
RCS: 0.0677 m2 (small)
Launch date: May 10, 1999
Source: People's Republic of China (PRC)
Launch site: Taiyaun Space Center, China (TSC)

Note: This is SATELLITE DEBRIS
aabbcc
Your satellite tracking list
Your tracking list is empty




NASA's NSSDC Master Catalog

Two Line Element Set (TLE):
1 30069U 99025PW  17328.06530921 +.00000283 +00000-0 +20760-3 0  9991
2 30069 098.8944 007.6683 0049600 003.2360 055.7070 14.03116225555908
Source of the keplerian elements: AFSPC